Location: Drocourt
(49.0571°N, 1.7669°E)
Time: 13:43:34
(UTC+00:00)

Vanguard 2 Rocket - Pass Details

Date: 18 April 2024
Orbit: 556 x 3304 km, 32.9° (Epoch: 22 May)

Event Time Altitude Azimuth Distance (km) Brightness Sun altitude
Rises 19:22:38 0° 191° (S) 6,069 11.0 -5.8°
Reaches altitude 10° 19:27:57 10° 176° (S) 5,478 10.6 -6.6°
Maximum altitude 19:39:01 21° 136° (SE) 5,192 10.2 -8.2°
Drops below altitude 10° 19:51:24 10° 98° (E) 6,258 10.6 -9.9°
Sets 19:58:04 0° 85° (E) 7,175 11.0 -10.9°
